TimeCDT,TemperatureF,Dew PointF,Humidity,Sea Level PressureIn,VisibilityMPH,Wind Direction,Wind SpeedMPH,Gust SpeedMPH,PrecipitationIn,Events,Conditions,WindDirDegrees,DateUTC
12:01 AM,19.4,6.8,58,30.09,10.0,West,4.6,-,N/A,,Clear,280,2013-04-02 05:01:00
12:21 AM,19.4,6.8,58,30.09,10.0,WNW,6.9,-,N/A,,Clear,290,2013-04-02 05:21:00
12:41 AM,19.4,6.8,58,30.09,10.0,West,5.8,-,N/A,,Clear,280,2013-04-02 05:41:00
1:01 AM,17.6,6.8,63,30.09,10.0,West,4.6,-,N/A,,Clear,280,2013-04-02 06:01:00
1:21 AM,17.6,6.8,63,30.10,10.0,West,3.5,-,N/A,,Clear,270,2013-04-02 06:21:00
1:41 AM,17.6,6.8,63,30.10,10.0,West,4.6,-,N/A,,Clear,270,2013-04-02 06:41:00
2:01 AM,15.8,6.8,68,30.10,10.0,West,6.9,-,N/A,,Clear,260,2013-04-02 07:01:00
2:21 AM,15.8,6.8,68,30.10,10.0,West,6.9,-,N/A,,Clear,270,2013-04-02 07:21:00
2:41 AM,15.8,8.6,73,30.10,10.0,West,6.9,-,N/A,,Clear,280,2013-04-02 07:41:00
3:01 AM,15.8,8.6,73,30.10,10.0,West,6.9,-,N/A,,Clear,280,2013-04-02 08:01:00
3:21 AM,15.8,8.6,73,30.10,10.0,West,5.8,-,N/A,,Clear,270,2013-04-02 08:21:00
3:41 AM,14.0,8.6,79,30.10,10.0,West,5.8,-,N/A,,Clear,280,2013-04-02 08:41:00
4:01 AM,14.0,6.8,73,30.10,10.0,WNW,5.8,-,N/A,,Clear,290,2013-04-02 09:01:00
4:21 AM,12.2,6.8,79,30.11,10.0,WNW,5.8,-,N/A,,Clear,290,2013-04-02 09:21:00
4:41 AM,12.2,6.8,79,30.11,10.0,West,5.8,-,N/A,,Clear,280,2013-04-02 09:41:00
5:01 AM,12.2,6.8,79,30.12,10.0,West,4.6,-,N/A,,Clear,270,2013-04-02 10:01:00
5:21 AM,12.2,6.8,79,30.12,10.0,West,3.5,-,N/A,,Clear,260,2013-04-02 10:21:00
5:41 AM,10.4,6.8,85,30.13,10.0,West,3.5,-,N/A,,Clear,260,2013-04-02 10:41:00
6:01 AM,10.4,6.8,85,30.13,10.0,West,2.3,-,N/A,,Clear,270,2013-04-02 11:01:00
6:21 AM,10.4,6.8,85,30.13,10.0,West,3.5,-,N/A,,Clear,280,2013-04-02 11:21:00
6:41 AM,12.2,6.8,79,30.14,10.0,West,1.2,-,N/A,,Clear,260,2013-04-02 11:41:00
7:01 AM,10.4,6.8,85,30.15,10.0,West,3.5,-,N/A,,Clear,260,2013-04-02 12:01:00
7:21 AM,12.2,6.8,79,30.15,10.0,West,3.5,-,N/A,,Clear,270,2013-04-02 12:21:00
7:41 AM,14.0,8.6,79,30.16,10.0,West,3.5,-,N/A,,Clear,280,2013-04-02 12:41:00
8:01 AM,15.8,8.6,73,30.16,10.0,WNW,5.8,-,N/A,,Clear,300,2013-04-02 13:01:00
8:41 AM,17.6,6.8,63,30.17,10.0,NW,5.8,-,N/A,,Clear,320,2013-04-02 13:41:00
9:01 AM,19.4,6.8,58,30.18,10.0,NW,5.8,-,N/A,,Clear,320,2013-04-02 14:01:00
9:19 AM,19.4,6.8,58,30.18,10.0,WNW,5.8,-,N/A,,Clear,300,2013-04-02 14:19:00
9:33 AM,21.2,6.8,54,30.18,10.0,NNW,3.5,-,N/A,,Clear,340,2013-04-02 14:33:00
9:52 AM,21.2,5.0,50,30.18,10.0,NNW,6.9,-,N/A,,Clear,330,2013-04-02 14:52:00
10:13 AM,23.0,3.2,43,30.18,10.0,NNW,6.9,-,N/A,,Clear,330,2013-04-02 15:13:00
10:33 AM,24.8,3.2,40,30.19,10.0,NW,8.1,16.1,N/A,,Clear,310,2013-04-02 15:33:00
10:52 AM,24.8,3.2,40,30.19,10.0,NNW,11.5,19.6,N/A,,Clear,330,2013-04-02 15:52:00
11:13 AM,26.6,3.2,37,30.19,10.0,NNW,10.4,20.7,N/A,,Clear,330,2013-04-02 16:13:00
11:33 AM,26.6,3.2,37,30.20,10.0,NNW,11.5,23.0,N/A,,Clear,340,2013-04-02 16:33:00
11:52 AM,26.6,1.4,34,30.20,10.0,WNW,13.8,20.7,N/A,,Clear,300,2013-04-02 16:52:00
12:13 PM,26.6,1.4,34,30.20,10.0,NW,12.7,20.7,N/A,,Clear,320,2013-04-02 17:13:00
12:33 PM,26.6,-0.4,31,30.20,10.0,WNW,9.2,18.4,N/A,,Clear,300,2013-04-02 17:33:00
12:52 PM,26.6,-2.2,29,30.20,10.0,NW,13.8,21.9,N/A,,Clear,320,2013-04-02 17:52:00
1:13 PM,28.4,-2.2,27,30.20,10.0,NW,10.4,23.0,N/A,,Clear,310,2013-04-02 18:13:00
1:33 PM,28.4,-2.2,27,30.20,10.0,NNW,10.4,19.6,N/A,,Clear,330,2013-04-02 18:33:00
1:52 PM,28.4,-2.2,27,30.20,10.0,NW,12.7,17.3,N/A,,Clear,320,2013-04-02 18:52:00
2:13 PM,28.4,-2.2,27,30.21,10.0,NW,15.0,18.4,N/A,,Clear,320,2013-04-02 19:13:00
2:33 PM,30.2,-2.2,25,30.21,10.0,NW,11.5,20.7,N/A,,Clear,310,2013-04-02 19:33:00
2:52 PM,30.2,-2.2,25,30.21,10.0,NW,9.2,18.4,N/A,,Clear,320,2013-04-02 19:52:00
3:13 PM,30.2,-0.4,27,30.21,10.0,WNW,13.8,18.4,N/A,,Clear,300,2013-04-02 20:13:00
3:32 PM,30.2,-2.2,25,30.21,10.0,WNW,9.2,17.3,N/A,,Clear,300,2013-04-02 20:32:00
3:53 PM,30.2,-2.2,25,30.21,10.0,NW,15.0,23.0,N/A,,Clear,310,2013-04-02 20:53:00
4:12 PM,30.2,-4.0,23,30.21,10.0,NW,12.7,19.6,N/A,,Clear,310,2013-04-02 21:12:00
4:33 PM,30.2,-2.2,25,30.22,10.0,NW,11.5,18.4,N/A,,Clear,310,2013-04-02 21:33:00
4:47 PM,30.2,-4.0,23,30.22,10.0,NW,11.5,18.4,N/A,,Clear,320,2013-04-02 21:47:00
5:19 PM,30.2,-2.2,25,30.23,10.0,NW,10.4,17.3,N/A,,Clear,320,2013-04-02 22:19:00
5:32 PM,30.2,-2.2,25,30.23,10.0,NNW,12.7,17.3,N/A,,Clear,340,2013-04-02 22:32:00
5:53 PM,30.2,-2.2,25,30.24,10.0,WNW,10.4,-,N/A,,Clear,300,2013-04-02 22:53:00
6:13 PM,30.2,-4.0,23,30.24,10.0,NW,9.2,-,N/A,,Clear,310,2013-04-02 23:13:00
6:32 PM,28.4,-2.2,27,30.25,10.0,NW,8.1,-,N/A,,Clear,320,2013-04-02 23:32:00
6:53 PM,28.4,-4.0,25,30.25,10.0,NNW,6.9,-,N/A,,Clear,330,2013-04-02 23:53:00
7:12 PM,26.6,-2.2,29,30.25,10.0,WNW,8.1,-,N/A,,Clear,300,2013-04-03 00:12:00
7:33 PM,26.6,-2.2,29,30.25,10.0,NW,8.1,-,N/A,,Clear,310,2013-04-03 00:33:00
7:52 PM,26.6,-2.2,29,30.25,10.0,NW,4.6,-,N/A,,Clear,310,2013-04-03 00:52:00
8:13 PM,24.8,-2.2,31,30.26,10.0,NW,3.5,-,N/A,,Clear,310,2013-04-03 01:13:00
8:32 PM,24.8,-2.2,31,30.26,10.0,NW,3.5,-,N/A,,Clear,310,2013-04-03 01:32:00
8:53 PM,23.0,-2.2,33,30.27,10.0,NW,3.5,-,N/A,,Clear,320,2013-04-03 01:53:00
9:13 PM,21.2,-4.0,33,30.27,10.0,Calm,Calm,-,N/A,,Clear,0,2013-04-03 02:13:00
9:33 PM,19.4,-0.4,42,30.28,10.0,Calm,Calm,-,N/A,,Clear,0,2013-04-03 02:33:00
9:53 PM,17.6,-0.4,45,30.28,10.0,NW,3.5,-,N/A,,Clear,320,2013-04-03 02:53:00
10:13 PM,17.6,1.4,49,30.28,10.0,NW,3.5,-,N/A,,Clear,310,2013-04-03 03:13:00
10:32 PM,15.8,1.4,53,30.28,10.0,Calm,Calm,-,N/A,,Clear,0,2013-04-03 03:32:00
10:53 PM,15.8,1.4,53,30.29,10.0,Calm,Calm,-,N/A,,Clear,0,2013-04-03 03:53:00
11:13 PM,12.2,1.4,62,30.29,10.0,Calm,Calm,-,N/A,,Clear,0,2013-04-03 04:13:00
11:32 PM,12.2,1.4,62,30.29,10.0,Calm,Calm,-,N/A,,Clear,0,2013-04-03 04:32:00
11:53 PM,10.4,1.4,67,30.30,10.0,Calm,Calm,-,N/A,,Clear,0,2013-04-03 04:53:00